Aérodrome :
LOGIN :

S'inscrire | Disclaimer

   EN    FR    IT 

 










Légende :    VFR   VFR Marginal   IFR   IFR Intensif   IFR Très Intensif
Visi : 
Plafond : 
>= 8 km
>= 3000ft
5 à 8 km
1000 à 3000 ft
1500m à 5 km
500 à 1000 ft
800 à 1500m
200 à 500 ft
< 800m
< 200 ft
Symboles :   Orages  Brouillard  Fortes neiges  Fortes précipitations  Vent > 20 kt
SIGMETs :   Divers  Orages  Givrage  Turbulence  Onde Orograph.  Cendres Volcan.







- Altitude de l'aérodrome : 768 ft
- Code IATA : MXP


LIMC - Milano Malpensa

DERNIER METAR :
  • 192120Z 36009KT 7000 -DZ BKN030 03/03 Q1008 REDZ NOSIG

METARs EXPIRÉS :
  • 192050Z 36009KT 7000 DZ BKN040 03/03 Q1008 NOSIG
  • 192020Z 01006KT 6000 DZ BKN030 03/03 Q1008 NOSIG
  • 191950Z 36007KT 7000 DZ BKN020 03/03 Q1008 NOSIG
  • 191920Z 36008KT 7000 -RA BKN030 03/03 Q1008 NOSIG
  • 191850Z 36007KT 6000 -RA BKN010 03/02 Q1008 NOSIG

TAF TAF LIMC
Valide du 19 à 18h jusqu'au 21 à 00h UTC


191700Z 1918/2024 01010KT 6000 SCT020 BKN045
TEMPO 1920/2006 3000 DZ
Pas de NOTAMs connus pour ce terrain.



MET'MAP, la Météo Aéronautique d'un coup d'oeil ! - Copyright ORBIFLY Décembre 2007 - Disclaimer

ORBIFLY MET'MAP TEAM :

Programmation & Développement : Alexandra Zaïnal
Conception & Développement : Baudouin d'Aumeries
Co-Programmation & Développement : Marc-Olivier Méhu
Soutien technique & logistique : Manuel Goepfert

Contact : metmap@orbifly.com




SOURCES & CREDITS :

   NOAA